Location: Nairn
(57.5833°N, 3.8667°W)
Time: 03:17:55
(UTC+00:00)

ATLAS 3B R/B - Pass Details

Date: 07 August 2020
Orbit: 1016 x 1179 km, 63.8° (Epoch: 22 September)

Event Time Altitude Azimuth Distance (km) Brightness Sun altitude
Exits shadow 01:40:58 12° 237° (WSW) 2,674 4.3 -14.3°
Maximum altitude 01:47:13 84° 326° (NW) 1,041 2.7 -14.0°
Drops below altitude 10° 01:53:59 10° 56° (NE) 2,872 5.9 -13.6°
Sets 01:56:40 0° 57° (ENE) 3,849 6.6 -13.5°
